This is the latest recevied weather packets stored in our database for station/object KI4NG. If no packets are shown the sender has not sent any weather packets the latest 10 day(s).
| Time | Temp. | Humidity | Pressure | Rain* | Wind** | Luminosity | Snow |
|---|---|---|---|---|---|---|---|
| 1788484033 | 27.22° C | 79% | 1019.2 hPa | 0 mm | - | 0 W/m² | - |
| 1788483730 | 27.22° C | 79% | 1019 hPa | 0 mm | - | 0 W/m² | - |
| 1788483424 | 27.22° C | 78% | 1019.4 hPa | 0 mm | - | 0 W/m² | - |
| 1788483121 | 27.22° C | 78% | 1019.2 hPa | 0 mm | - | 0 W/m² | - |
| 1788482821 | 27.22° C | 78% | 1019.1 hPa | 0 mm | - | 0 W/m² | - |
| 1788482515 | 27.78° C | 77% | 1019 hPa | 0 mm | - | 0 W/m² | - |
| 1788482211 | 27.78° C | 77% | 1019 hPa | 0 mm | - | 0 W/m² | - |
| 1788481907 | 27.78° C | 77% | 1019.2 hPa | 0 mm | - | 0 W/m² | - |
| 1788481603 | 27.78° C | 77% | 1019 hPa | 0 mm | - | 0 W/m² | - |
| 1788481298 | 27.22° C | 77% | 1018.8 hPa | 0 mm | - | 0 W/m² | - |
| 1788480993 | 27.22° C | 77% | 1018.7 hPa | 0 mm | - | 0 W/m² | - |
| 1788480691 | 27.78° C | 77% | 1018.5 hPa | 0 mm | - | 0 W/m² | - |
| 1788480388 | 27.78° C | 76% | 1018.7 hPa | 0 mm | - | 0 W/m² | - |
| 1788480083 | 27.78° C | 76% | 1018.7 hPa | 0 mm | - | 2 W/m² | - |
| 1788479782 | 28.33° C | 75% | 1018.6 hPa | 0 mm | - | 5 W/m² | - |
| 1788479479 | 28.89° C | 73% | 1018.7 hPa | 0 mm | - | 9 W/m² | - |
| 1788479173 | 28.89° C | 72% | 1018.8 hPa | 0 mm | - | 12 W/m² | - |
| 1788478869 | 29.44° C | 71% | 1018.7 hPa | 0 mm | - | 16 W/m² | - |
| 1788478565 | 30° C | 69% | 1018.6 hPa | 0 mm | - | 20 W/m² | - |
| 1788478261 | 30° C | 69% | 1018.5 hPa | 0 mm | - | 24 W/m² | - |
| 1788477955 | 30° C | 68% | 1018.6 hPa | 0 mm | - | 28 W/m² | - |
| 1788477651 | 30° C | 66% | 1018.3 hPa | 0 mm | - | 31 W/m² | - |
| 1788477345 | 30° C | 67% | 1018.2 hPa | 0 mm | - | 35 W/m² | - |
| 1788477039 | 30.56° C | 65% | 1018.1 hPa | 0 mm | - | 38 W/m² | - |
| 1788476736 | 30.56° C | 64% | 1018.1 hPa | 0 mm | - | 42 W/m² | - |
* Rain latest hour (hover to see other rain measurements)
** Current wind speed in m/s (hover to see current wind gust speed)